Zurück zum Katalog

STARLINK-32768

AktivKommunikationVLEO
NORAD 62503·PAYLOAD·🇺🇸 United States

Gestartet Jan 6, 2025 von Cape Canaveral Space Force Station

Loading…

Nächste Überflüge (nächste 24 Stunden)

TLE

AktuellSource: CelesTrak SupGP

Epoche: Sep 14, 2026, 22:36 UTC

1 62503C 25003S   26257.94215278  .00011904  00000+0  43124-3 0  2574
2 62503  43.0031 299.8612 0001482 270.4278 275.9501 15.27565250    19

Verfolge STARLINK-32768 in Echtzeit mit AllMySat

Download on the App Store